This demonstration page uses our WeatherBlox Daily Observations layout. Learn more.

Left ArrowRight Arrow

39.51506, -84.39828

Hourly Observations for December 10, 2015

Temp ( °F °C ) Dew Point ( °F °C ) Humidity (%) Winds ( mph kmh ) Pressure ( in mb ) Visibility ( mi km ) Precip ( " mm )
12:15 am 00:15 Mostly Cloudy with Fog 39 4 37 2.5 90 90 N N/A 29.91 1013 1 1 N/A
12:35 am 00:35 Mostly Cloudy with Fog 38 3.6 36 2.1 90 90 W 3 6 29.91 1013 1 1 N/A
12:55 am 00:55 Mostly Cloudy with Fog 37 2.5 34 0.9 89 89 N N/A 29.91 1013 0 0 N/A
1:15 am 01:15 Mostly Cloudy with Fog 37 2.6 34 1 89 89 N N/A 29.91 1013 0 0 N/A
1:35 am 01:35 Mostly Cloudy with Fog 37 2.6 34 1.1 90 90 N N/A 29.91 1013 0 0 N/A
1:55 am 01:55 Mostly Cloudy with Mist and Fog 37 2.6 34 1.1 90 90 N N/A 29.91 1013 1 2 N/A
2:15 am 02:15 Mostly Cloudy with Fog 37 2.6 34 1.1 90 90 N N/A 29.91 1013 0 0 N/A
2:35 am 02:35 Clear with Mist and Fog 37 2.6 34 1.1 90 90 N N/A 29.91 1013 4 6 N/A
2:55 am 02:55 Mostly Cloudy with Mist and Fog 37 2.6 34 1.1 90 90 N N/A 29.91 1013 2 2 N/A
3:15 am 03:15 Mostly Cloudy with Fog 35 1.7 32 0.2 90 90 N N/A 29.94 1014 0 0 N/A
3:35 am 03:35 Clear with Mist and Fog 37 2.6 34 1.1 90 90 N N/A 29.91 1013 3 5 N/A
3:55 am 03:55 Clear with Mist and Fog 37 2.5 34 1 90 90 N N/A 29.91 1013 2 3 N/A
4:15 am 04:15 Mostly Cloudy with Mist and Fog 37 2.6 34 1.1 90 90 N N/A 29.91 1013 1 2 N/A
4:35 am 04:35 Mostly Cloudy with Mist and Fog 36 2 33 0.5 90 90 N N/A 29.94 1014 1 2 N/A
4:55 am 04:55 Mostly Cloudy with Fog 34 1.2 32 undefined 92 92 N N/A 29.94 1014 1 1 N/A
5:15 am 05:15 Mostly Cloudy with Fog 34 1.2 32 undefined 92 92 N N/A 29.94 1014 1 1 N/A
5:35 am 05:35 Mostly Cloudy with Fog 34 1.2 32 undefined 92 92 N N/A 29.97 1015 0 0 N/A
5:55 am 05:55 Mostly Cloudy with Fog 33 0.6 31 -0.7 91 91 N N/A 29.97 1015 0 0 N/A
6:15 am 06:15 Mostly Cloudy with Fog 34 1.2 32 undefined 92 92 N N/A 29.94 1014 1 1 N/A
6:35 am 06:35 Cloudy with Fog 34 1.2 32 undefined 92 92 N N/A 29.94 1014 1 1 N/A
6:55 am 06:55 Cloudy with Fog 34 1.2 32 undefined 92 92 N N/A 29.94 1014 1 1 N/A
7:15 am 07:15 Cloudy with Mist and Fog 37 2.6 34 1.3 91 91 N N/A 29.91 1013 1 1 N/A
7:35 am 07:35 Cloudy with Fog 41 4.8 38 3.6 92 92 SSW 5 7 29.91 1013 0 0 N/A
7:55 am 07:55 Cloudy with Mist and Fog 47 8.2 44 6.8 91 91 SSW 7 11 29.91 1013 2 2 N/A
8:15 am 08:15 Cloudy with Mist and Fog 47 8.2 44 6.8 91 91 S 9 15 29.91 1013 2 2 N/A
8:35 am 08:35 Cloudy with Mist and Fog 47 8.2 44 6.8 91 91 SSW 7 11 29.91 1013 2 2 N/A
8:55 am 08:55 Cloudy with Mist and Fog 49 9.2 46 7.8 91 91 SSW 7 11 29.94 1014 2 3 N/A
9:15 am 09:15 Cloudy with Mist and Fog 49 9.6 47 8.2 91 91 SSW 8 13 29.94 1014 2 3 N/A
9:35 am 09:35 Cloudy with Mist and Fog 49 9.6 47 8.2 91 91 SSW 9 15 29.94 1014 3 4 N/A
9:55 am 09:55 Cloudy with Mist and Fog 49 9.6 47 8.2 91 91 S 7 11 29.94 1014 3 4 N/A
10:15 am 10:15 Cloudy with Mist and Fog 49 9.6 47 8.2 91 91 S 9 15 29.94 1014 3 5 N/A
10:35 am 10:35 Cloudy with Mist and Fog 49 9.6 47 8.2 91 91 SSW 12 19 29.94 1014 4 6 N/A
10:55 am 10:55 Cloudy with Mist and Fog 49 9.6 46 8 90 90 SSW 10 17 29.94 1014 4 6 N/A
11:15 am 11:15 Cloudy with Haze 51 10.3 46 7.9 85 85 SSW 13 20 29.94 1014 5 8 N/A
11:35 am 11:35 Cloudy 52 11 46 8 82 82 SSW 12 19 29.91 1013 7 11 N/A
11:55 am 11:55 Mostly Cloudy 52 11.1 46 7.6 79 79 SSW 13 20 29.91 1013 7 11 N/A
12:15 pm 12:15 Partly Cloudy 55 12.5 47 8.5 77 77 S 15 24 29.88 1012 7 11 N/A
12:35 pm 12:35 Partly Cloudy 55 12.5 47 8.3 76 76 S 14 22 29.88 1012 10 16 N/A
12:55 pm 12:55 Partly Cloudy 55 12.5 47 8.1 75 75 S 13 20 29.85 1011 10 16 N/A
1:15 pm 13:15 Sunny 55 12.5 46 7.6 72 72 S 14 22 29.85 1011 10 16 N/A
1:35 pm 13:35 Sunny 55 12.5 46 7.5 72 72 S 15 24 29.85 1011 10 16 N/A
1:55 pm 13:55 Sunny 55 12.5 45 7.4 71 71 S 14 22 29.85 1011 10 16 N/A
2:15 pm 14:15 Sunny 57 13.8 47 8.1 69 69 S 14 22 29.83 1010 10 16 N/A
2:35 pm 14:35 Sunny 57 13.8 46 8 68 68 S 12 19 29.80 1009 10 16 N/A
2:55 pm 14:55 Sunny 57 13.8 47 8.1 69 69 SSW 14 22 29.80 1009 10 16 N/A
3:15 pm 15:15 Sunny 57 13.8 47 8.1 69 69 SSW 14 22 29.80 1009 10 16 N/A
3:35 pm 15:35 Sunny 57 13.8 47 8.2 69 69 S 10 17 29.80 1009 10 16 N/A
3:55 pm 15:55 Sunny 57 13.8 47 8.1 69 69 S 12 19 29.80 1009 10 16 N/A
4:15 pm 16:15 Sunny 57 13.8 47 8.3 70 70 S 10 17 29.80 1009 10 16 N/A
4:35 pm 16:35 Sunny 57 13.8 47 8.4 70 70 S 8 13 29.80 1009 10 16 N/A
4:55 pm 16:55 Sunny 57 13.8 47 8.6 71 71 S 8 13 29.80 1009 10 16 N/A
5:15 pm 17:15 Clear 56 13.6 48 8.8 73 73 S 9 15 29.83 1010 10 16 N/A
5:35 pm 17:35 Clear 56 13.1 48 8.7 75 75 S 12 19 29.83 1010 10 16 N/A
5:55 pm 17:55 Clear 55 12.9 47 8.6 75 75 S 10 17 29.83 1010 10 16 N/A
6:15 pm 18:15 Clear 55 12.5 47 8.6 77 77 SSE 10 17 29.80 1009 10 16 N/A
6:35 pm 18:35 Clear 55 12.5 47 8.5 77 77 S 13 20 29.80 1009 10 16 N/A
6:55 pm 18:55 Clear 55 12.5 46 8 74 74 SSW 12 19 29.80 1009 10 16 N/A
7:15 pm 19:15 Clear 55 12.5 46 8 74 74 SSW 12 19 29.83 1010 10 16 N/A
7:35 pm 19:35 Clear 55 12.5 46 7.6 72 72 S 14 22 29.80 1009 10 16 N/A
7:55 pm 19:55 Clear 55 12.5 46 7.8 73 73 SW 9 15 29.80 1009 10 16 N/A
8:15 pm 20:15 Clear 55 12.5 46 8 74 74 S 8 13 29.80 1009 10 16 N/A
8:35 pm 20:35 Clear 55 12.5 47 8.1 75 75 S 7 11 29.80 1009 10 16 N/A
8:55 pm 20:55 Clear 55 12.5 46 8 74 74 S 7 11 29.80 1009 10 16 N/A
9:15 pm 21:15 Clear 54 12.2 46 7.9 75 75 S 7 11 29.80 1009 10 16 N/A
9:35 pm 21:35 Clear 49 9.6 44 6.5 81 81 SW 3 6 29.83 1010 10 16 N/A
9:55 pm 21:55 Clear 49 9.6 44 6.4 81 81 SSW 6 9 29.83 1010 10 16 N/A
10:15 pm 22:15 Clear 49 9.6 44 6.6 82 82 SSW 6 9 29.83 1010 10 16 N/A
10:35 pm 22:35 Clear 49 9.6 44 6.7 82 82 SSW 6 9 29.83 1010 10 16 N/A
10:55 pm 22:55 Clear 49 9.6 44 6.7 82 82 SSW 6 9 29.83 1010 10 16 N/A
11:15 pm 23:15 Clear 49 9.6 44 6.9 83 83 SW 3 6 29.83 1010 10 16 N/A
11:35 pm 23:35 Partly Cloudy 49 9.6 45 7.1 85 85 SSW 5 7 29.83 1010 10 16 N/A
11:55 pm 23:55 Mostly Cloudy 49 9.6 45 7.3 86 86 SW 7 11 29.83 1010 10 16 N/A

Powered by AerisWeather